| time (UTC) | temp C | wind direction | speed KPH | gust KPH | rain 1hr cm | rain 24hr cm | rain mn cm | humidity % | barometer mb |
| 20260507013501 | 6 | 28 | 0.0 | 0.0 | 0.00 | 0.00 | 0.00 | 88 | 1013.7 |
| 20260507013403 | 6 | 28 | 0.0 | 0.0 | 0.00 | 0.00 | 0.00 | 88 | 1013.7 |
| 20260507013154 | 7 | 28 | 0.0 | 0.0 | 0.00 | 0.00 | 0.00 | 88 | 1013.7 |
| 20260507013126 | 7 | 28 | 0.0 | 0.0 | 0.00 | 0.00 | 0.00 | 88 | 1013.7 |
| 20260507012501 | 7 | 28 | 0.0 | 0.0 | 0.00 | 0.00 | 0.00 | 88 | 1013.7 |
| 20260507012403 | 7 | 28 | 0.0 | 0.0 | 0.00 | 0.00 | 0.00 | 88 | 1013.7 |
| 20260507012004 | 7 | 28 | 0.0 | 0.0 | 0.00 | 0.00 | 0.00 | 88 | 1013.7 |
| 20260507011904 | 7 | 28 | 0.0 | 0.0 | 0.00 | 0.00 | 0.00 | 87 | 1013.7 |
| 20260507011504 | 7 | 28 | 0.0 | 0.0 | 0.00 | 0.00 | 0.00 | 87 | 1013.7 |
| 20260507011402 | 7 | 28 | 0.0 | 0.0 | 0.00 | 0.00 | 0.00 | 87 | 1013.7 |
| 20260507011003 | 7 | 28 | 0.0 | 0.0 | 0.00 | 0.00 | 0.00 | 87 | 1013.7 |
| 20260507010904 | 7 | 28 | 0.0 | 0.0 | 0.00 | 0.00 | 0.00 | 87 | 1013.6 |
| 20260507010502 | 7 | 28 | 0.0 | 0.0 | 0.00 | 0.00 | 0.00 | 87 | 1013.6 |
| 20260507010402 | 7 | 28 | 0.0 | 0.0 | 0.00 | 0.00 | 0.00 | 87 | 1013.6 |
| 20260507010003 | 7 | 28 | 0.0 | 3.2 | 0.00 | 0.00 | 0.00 | 87 | 1013.7 |
| 20260507005905 | 7 | 28 | 0.0 | 3.2 | 0.00 | 0.00 | 0.00 | 87 | 1013.6 |
| 20260507005504 | 7 | 28 | 0.0 | 4.8 | 0.00 | 0.00 | 0.00 | 87 | 1013.6 |
| 20260507005404 | 7 | 28 | 1.6 | 4.8 | 0.00 | 0.00 | 0.00 | 87 | 1013.6 |
| 20260507005157 | 7 | 28 | 1.6 | 4.8 | 0.00 | 0.00 | 0.00 | 87 | 1013.6 |
| 20260507005128 | 7 | 28 | 1.6 | 4.8 | 0.00 | 0.00 | 0.00 | 87 | 1013.6 |
| 20260507004504 | 7 | 28 | 1.6 | 6.4 | 0.00 | 0.00 | 0.00 | 87 | 1013.6 |
| 20260507004405 | 7 | 28 | 1.6 | 6.4 | 0.00 | 0.00 | 0.00 | 87 | 1013.7 |
| 20260507004156 | 7 | 28 | 3.2 | 8.0 | 0.00 | 0.00 | 0.00 | 87 | 1013.6 |
| 20260507004127 | 7 | 28 | 3.2 | 8.0 | 0.00 | 0.00 | 0.00 | 87 | 1013.6 |
| 20260507003503 | 7 | 33 | 3.2 | 8.0 | 0.00 | 0.00 | 0.00 | 87 | 1013.6 |
| 20260507003404 | 7 | 32 | 3.2 | 8.0 | 0.00 | 0.00 | 0.00 | 87 | 1013.7 |
| 20260507003002 | 7 | 29 | 3.2 | 6.4 | 0.00 | 0.00 | 0.00 | 87 | 1013.6 |
| 20260507002905 | 7 | 29 | 3.2 | 6.4 | 0.00 | 0.00 | 0.00 | 87 | 1013.6 |
| 20260507002503 | 7 | 30 | 3.2 | 6.4 | 0.00 | 0.00 | 0.00 | 87 | 1013.6 |
| 20260507002403 | 7 | 29 | 3.2 | 6.4 | 0.00 | 0.00 | 0.00 | 87 | 1013.6 |
| 20260507002200 | 7 | 18 | 3.2 | 6.4 | 0.00 | 0.00 | 0.00 | 86 | 1013.6 |
| 20260507002129 | 7 | 22 | 3.2 | 6.4 | 0.00 | 0.00 | 0.00 | 87 | 1013.6 |
| 20260507001503 | 7 | 23 | 3.2 | 6.4 | 0.00 | 0.00 | 0.00 | 86 | 1013.6 |
| 20260507001402 | 7 | 24 | 1.6 | 6.4 | 0.00 | 0.00 | 0.00 | 86 | 1013.5 |
| 20260507001003 | 7 | 31 | 1.6 | 6.4 | 0.00 | 0.00 | 0.00 | 86 | 1013.5 |
| 20260507000904 | 7 | 30 | 1.6 | 6.4 | 0.00 | 0.00 | 0.00 | 86 | 1013.5 |
| 20260507000505 | 7 | 26 | 1.6 | 6.4 | 0.00 | 0.00 | 0.00 | 86 | 1013.5 |
| 20260507000405 | 7 | 26 | 1.6 | 6.4 | 0.00 | 0.00 | 0.00 | 86 | 1013.6 |
| 20260507000004 | 7 | 26 | 3.2 | 6.4 | 0.00 | 0.00 | 0.00 | 86 | 1013.5 |
| 20260506235907 | 7 | 26 | 3.2 | 6.4 | 0.00 | 0.00 | 0.00 | 85 | 1013.6 |
| 20260506235503 | 8 | 21 | 1.6 | 8.0 | 0.00 | 0.00 | 0.00 | 85 | 1013.7 |
| 20260506235404 | 8 | 22 | 1.6 | 8.0 | 0.00 | 0.00 | 0.00 | 85 | 1013.6 |
| 20260506235002 | 8 | 24 | 0.0 | 8.0 | 0.00 | 0.00 | 0.00 | 85 | 1013.6 |
| 20260506234904 | 8 | 24 | 0.0 | 8.0 | 0.00 | 0.00 | 0.00 | 85 | 1013.6 |
| 20260506234504 | 8 | 22 | 0.0 | 4.8 | 0.00 | 0.00 | 0.00 | 85 | 1013.6 |
| 20260506234403 | 8 | 22 | 0.0 | 4.8 | 0.00 | 0.00 | 0.00 | 85 | 1013.6 |
| 20260506234002 | 8 | 22 | 1.6 | 4.8 | 0.00 | 0.00 | 0.00 | 84 | 1013.6 |
| 20260506233904 | 8 | 22 | 1.6 | 6.4 | 0.00 | 0.00 | 0.00 | 84 | 1013.6 |
| 20260506233504 | 8 | 26 | 1.6 | 6.4 | 0.00 | 0.00 | 0.00 | 84 | 1013.6 |
| 20260506233404 | 8 | 26 | 1.6 | 6.4 | 0.00 | 0.00 | 0.00 | 84 | 1013.5 |
| 20260506233002 | 8 | 26 | 1.6 | 6.4 | 0.00 | 0.00 | 0.00 | 84 | 1013.6 |
| 20260506232905 | 8 | 22 | 0.0 | 6.4 | 0.00 | 0.00 | 0.00 | 84 | 1013.6 |
| 20260506232503 | 8 | 25 | 1.6 | 6.4 | 0.00 | 0.00 | 0.00 | 83 | 1013.6 |
| 20260506232405 | 8 | 25 | 1.6 | 6.4 | 0.00 | 0.00 | 0.00 | 83 | 1013.6 |
| 20260506232003 | 8 | 25 | 1.6 | 6.4 | 0.00 | 0.00 | 0.00 | 83 | 1013.6 |
| 20260506231905 | 8 | 25 | 1.6 | 6.4 | 0.00 | 0.00 | 0.00 | 83 | 1013.6 |
| 20260506231702 | 8 | 24 | 3.2 | 8.0 | 0.00 | 0.00 | 0.00 | 83 | 1013.5 |
| 20260506231627 | 8 | 24 | 3.2 | 8.0 | 0.00 | 0.00 | 0.00 | 83 | 1013.5 |
| 20260506231003 | 8 | 19 | 3.2 | 8.0 | 0.00 | 0.00 | 0.00 | 82 | 1013.5 |
| 20260506230954 | 8 | 29 | 3.2 | 11.3 | 0.00 | 0.00 | 0.00 | 82 | 1013.5 |
| 20260506230937 | 8 | 19 | 3.2 | 8.0 | 0.00 | 0.00 | 0.00 | 82 | 1013.5 |
| 20260506230626 | 8 | 29 | 3.2 | 9.7 | 0.00 | 0.00 | 0.00 | 82 | 1013.4 |
| 20260506230003 | 8 | 13 | 3.2 | 11.3 | 0.00 | 0.00 | 0.00 | 82 | 1013.4 |
| 20260506225904 | 8 | 13 | 3.2 | 11.3 | 0.00 | 0.00 | 0.00 | 82 | 1013.5 |
| 20260506225503 | 8 | 9 | 3.2 | 11.3 | 0.00 | 0.00 | 0.00 | 82 | 1013.4 |
| 20260506225403 | 8 | 19 | 3.2 | 8.0 | 0.00 | 0.00 | 0.00 | 82 | 1013.4 |
| 20260506225003 | 8 | 23 | 3.2 | 8.0 | 0.00 | 0.00 | 0.00 | 82 | 1013.4 |
| 20260506224904 | 8 | 26 | 3.2 | 8.0 | 0.00 | 0.00 | 0.00 | 82 | 1013.4 |
| 20260506224502 | 8 | 12 | 3.2 | 9.7 | 0.00 | 0.00 | 0.00 | 82 | 1013.4 |
| 20260506224403 | 8 | 11 | 3.2 | 9.7 | 0.00 | 0.00 | 0.00 | 82 | 1013.4 |
| 20260506224002 | 9 | 35 | 4.8 | 9.7 | 0.00 | 0.00 | 0.00 | 82 | 1013.4 |
| 20260506223905 | 9 | 30 | 3.2 | 9.7 | 0.00 | 0.00 | 0.00 | 82 | 1013.4 |
| 20260506223503 | 9 | 35 | 4.8 | 14.5 | 0.00 | 0.00 | 0.00 | 82 | 1013.4 |
| 20260506223403 | 9 | 34 | 4.8 | 16.1 | 0.00 | 0.00 | 0.00 | 82 | 1013.3 |
| 20260506223001 | 9 | 55 | 6.4 | 16.1 | 0.00 | 0.00 | 0.00 | 82 | 1013.3 |
| 20260506222906 | 9 | 11 | 6.4 | 16.1 | 0.00 | 0.00 | 0.00 | 82 | 1013.3 |
| 20260506222505 | 9 | 40 | 4.8 | 16.1 | 0.00 | 0.00 | 0.00 | 82 | 1013.3 |
| 20260506222404 | 9 | 10 | 4.8 | 14.5 | 0.00 | 0.00 | 0.00 | 82 | 1013.3 |
| 20260506222002 | 9 | 44 | 3.2 | 11.3 | 0.00 | 0.00 | 0.00 | 83 | 1013.3 |
| 20260506221903 | 9 | 24 | 3.2 | 11.3 | 0.00 | 0.00 | 0.00 | 82 | 1013.3 |
| 20260506221503 | 9 | 27 | 3.2 | 11.3 | 0.00 | 0.00 | 0.00 | 82 | 1013.2 |
| 20260506221402 | 9 | 355 | 3.2 | 11.3 | 0.00 | 0.00 | 0.00 | 82 | 1013.2 |
| 20260506221221 | 9 | 5 | 3.2 | 8.0 | 0.00 | 0.00 | 0.00 | 82 | 1013.2 |
| 20260506221142 | 9 | 19 | 3.2 | 8.0 | 0.00 | 0.00 | 0.00 | 82 | 1013.2 |
| 20260506220502 | 9 | 355 | 3.2 | 8.0 | 0.00 | 0.00 | 0.00 | 82 | 1013.2 |
| 20260506220406 | 9 | 16 | 3.2 | 6.4 | 0.00 | 0.00 | 0.00 | 82 | 1013.1 |
| 20260506220002 | 9 | 14 | 3.2 | 6.4 | 0.00 | 0.00 | 0.00 | 81 | 1013.2 |
| 20260506215906 | 9 | 24 | 1.6 | 6.4 | 0.00 | 0.00 | 0.00 | 81 | 1013.1 |
| 20260506215503 | 9 | 5 | 3.2 | 8.0 | 0.00 | 0.00 | 0.00 | 81 | 1013.0 |
| 20260506215451 | 10 | 11 | 3.2 | 8.0 | 0.00 | 0.00 | 0.00 | 80 | 1013.0 |
| 20260506215435 | 9 | 5 | 3.2 | 8.0 | 0.00 | 0.00 | 0.00 | 80 | 1013.0 |
| 20260506215129 | 10 | 5 | 3.2 | 8.0 | 0.00 | 0.00 | 0.00 | 80 | 1013.0 |
| 20260506214504 | 10 | 5 | 3.2 | 8.0 | 0.00 | 0.00 | 0.00 | 79 | 1013.0 |
| 20260506214404 | 10 | 355 | 3.2 | 8.0 | 0.00 | 0.00 | 0.00 | 79 | 1013.0 |
| 20260506214002 | 10 | 5 | 4.8 | 8.0 | 0.00 | 0.00 | 0.00 | 79 | 1013.0 |
| 20260506213904 | 10 | 24 | 4.8 | 12.9 | 0.00 | 0.00 | 0.00 | 78 | 1013.0 |
| 20260506213503 | 10 | 15 | 3.2 | 12.9 | 0.00 | 0.00 | 0.00 | 78 | 1012.9 |
| 20260506213404 | 10 | 27 | 3.2 | 12.9 | 0.00 | 0.00 | 0.00 | 78 | 1012.9 |
| 20260506213003 | 10 | 355 | 3.2 | 12.9 | 0.00 | 0.00 | 0.00 | 77 | 1012.9 |
| 20260506212905 | 10 | 0 | 3.2 | 9.7 | 0.00 | 0.00 | 0.00 | 76 | 1012.9 |
| 20260506212504 | 10 | 27 | 3.2 | 8.0 | 0.00 | 0.00 | 0.00 | 76 | 1012.9 |
| 20260506212402 | 10 | 27 | 3.2 | 8.0 | 0.00 | 0.00 | 0.00 | 76 | 1012.9 |
| 20260506212003 | 10 | 11 | 3.2 | 9.7 | 0.00 | 0.00 | 0.00 | 76 | 1012.8 |
| 20260506211906 | 10 | 11 | 3.2 | 11.3 | 0.00 | 0.00 | 0.00 | 75 | 1012.8 |
| 20260506211503 | 10 | 355 | 3.2 | 14.5 | 0.00 | 0.00 | 0.00 | 75 | 1012.8 |
| 20260506211403 | 10 | 26 | 3.2 | 14.5 | 0.00 | 0.00 | 0.00 | 75 | 1012.8 |
| 20260506211002 | 10 | 23 | 3.2 | 14.5 | 0.00 | 0.00 | 0.00 | 75 | 1012.7 |
| 20260506210915 | 10 | 15 | 3.2 | 14.5 | 0.00 | 0.00 | 0.00 | 75 | 1012.7 |
| 20260506210503 | 10 | 355 | 4.8 | 12.9 | 0.00 | 0.00 | 0.00 | 75 | 1012.7 |
| 20260506210403 | 10 | 20 | 4.8 | 12.9 | 0.00 | 0.00 | 0.00 | 75 | 1012.7 |
| 20260506210000 | 10 | 28 | 4.8 | 17.7 | 0.00 | 0.00 | 0.00 | 75 | 1012.7 |
| 20260506205904 | 10 | 11 | 4.8 | 17.7 | 0.00 | 0.00 | 0.00 | 75 | 1012.6 |
| 20260506205457 | 10 | 5 | 4.8 | 17.7 | 0.00 | 0.00 | 0.00 | 75 | 1012.7 |
| 20260506205403 | 10 | 37 | 4.8 | 17.7 | 0.00 | 0.00 | 0.00 | 75 | 1012.6 |
| 20260506204958 | 10 | 19 | 4.8 | 14.5 | 0.00 | 0.00 | 0.00 | 75 | 1012.6 |
| 20260506204904 | 10 | 355 | 4.8 | 14.5 | 0.00 | 0.00 | 0.00 | 75 | 1012.5 |
| 20260506204456 | 11 | 36 | 6.4 | 14.5 | 0.00 | 0.00 | 0.00 | 74 | 1012.5 |
| 20260506204403 | 11 | 49 | 6.4 | 14.5 | 0.00 | 0.00 | 0.00 | 74 | 1012.5 |
| 20260506203954 | 11 | 18 | 4.8 | 17.7 | 0.00 | 0.00 | 0.00 | 74 | 1012.5 |
| 20260506203912 | 11 | 24 | 4.8 | 17.7 | 0.00 | 0.00 | 0.00 | 74 | 1012.4 |
| 20260506203453 | 11 | 53 | 4.8 | 17.7 | 0.00 | 0.00 | 0.00 | 74 | 1012.5 |
| 20260506203403 | 11 | 0 | 3.2 | 17.7 | 0.00 | 0.00 | 0.00 | 74 | 1012.4 |
| 20260506202951 | 11 | 20 | 3.2 | 12.9 | 0.00 | 0.00 | 0.00 | 73 | 1012.4 |
| 20260506202903 | 11 | 15 | 3.2 | 11.3 | 0.00 | 0.00 | 0.00 | 73 | 1012.4 |
| 20260506202452 | 11 | 355 | 3.2 | 11.3 | 0.00 | 0.00 | 0.00 | 73 | 1012.4 |
| 20260506202404 | 11 | 26 | 3.2 | 11.3 | 0.00 | 0.00 | 0.00 | 72 | 1012.4 |
| 20260506201951 | 11 | 21 | 3.2 | 11.3 | 0.00 | 0.00 | 0.00 | 72 | 1012.3 |
| 20260506201904 | 11 | 5 | 3.2 | 11.3 | 0.00 | 0.00 | 0.00 | 71 | 1012.3 |
| 20260506201448 | 11 | 42 | 4.8 | 9.7 | 0.00 | 0.00 | 0.00 | 71 | 1012.3 |
| 20260506201407 | 11 | 43 | 4.8 | 9.7 | 0.00 | 0.00 | 0.00 | 71 | 1012.3 |
| 20260506200945 | 11 | 5 | 4.8 | 11.3 | 0.00 | 0.00 | 0.00 | 71 | 1012.3 |
| 20260506200905 | 11 | 20 | 4.8 | 11.3 | 0.00 | 0.00 | 0.00 | 71 | 1012.3 |
| 20260506200443 | 11 | 0 | 6.4 | 14.5 | 0.00 | 0.00 | 0.00 | 70 | 1012.3 |
| 20260506200403 | 11 | 14 | 6.4 | 14.5 | 0.00 | 0.00 | 0.00 | 70 | 1012.3 |
| 20260506195943 | 11 | 30 | 6.4 | 17.7 | 0.00 | 0.00 | 0.00 | 70 | 1012.3 |
| 20260506195905 | 11 | 30 | 6.4 | 17.7 | 0.00 | 0.00 | 0.00 | 70 | 1012.3 |
| 20260506195443 | 11 | 40 | 6.4 | 17.7 | 0.00 | 0.00 | 0.00 | 70 | 1012.2 |
| 20260506195403 | 11 | 21 | 6.4 | 17.7 | 0.00 | 0.00 | 0.00 | 70 | 1012.2 |
| 20260506194944 | 11 | 26 | 6.4 | 14.5 | 0.00 | 0.00 | 0.00 | 70 | 1012.1 |
| 20260506194906 | 11 | 15 | 6.4 | 14.5 | 0.00 | 0.00 | 0.00 | 70 | 1012.1 |
| 20260506194701 | 11 | 34 | 6.4 | 16.1 | 0.00 | 0.00 | 0.00 | 70 | 1012.0 |
| 20260506194623 | 11 | 39 | 6.4 | 14.5 | 0.00 | 0.00 | 0.00 | 70 | 1012.0 |
| 20260506193942 | 11 | 42 | 8.0 | 17.7 | 0.00 | 0.00 | 0.00 | 70 | 1012.1 |
| 20260506193903 | 11 | 347 | 8.0 | 17.7 | 0.00 | 0.00 | 0.00 | 70 | 1012.1 |
| 20260506193442 | 11 | 44 | 8.0 | 17.7 | 0.00 | 0.00 | 0.00 | 69 | 1011.9 |
| 20260506193402 | 11 | 30 | 8.0 | 17.7 | 0.00 | 0.00 | 0.00 | 69 | 1011.9 |
| 20260506192939 | 11 | 58 | 6.4 | 20.9 | 0.00 | 0.00 | 0.00 | 69 | 1011.9 |
| 20260506192903 | 11 | 16 | 6.4 | 20.9 | 0.00 | 0.00 | 0.00 | 70 | 1011.9 |
| 20260506192438 | 11 | 17 | 6.4 | 20.9 | 0.00 | 0.00 | 0.00 | 70 | 1011.7 |
| 20260506192403 | 11 | 0 | 6.4 | 20.9 | 0.00 | 0.00 | 0.00 | 70 | 1011.7 |
| 20260506192159 | 12 | 40 | 6.4 | 16.1 | 0.00 | 0.00 | 0.00 | 70 | 1011.7 |
| 20260506192120 | 12 | 30 | 6.4 | 16.1 | 0.00 | 0.00 | 0.00 | 70 | 1011.7 |
| 20260506191438 | 12 | 5 | 8.0 | 17.7 | 0.00 | 0.00 | 0.00 | 70 | 1011.7 |
| 20260506191405 | 12 | 5 | 8.0 | 17.7 | 0.00 | 0.00 | 0.00 | 70 | 1011.7 |
| 20260506190905 | 12 | 45 | 8.0 | 17.7 | 0.00 | 0.00 | 0.00 | 70 | 1011.6 |
| 20260506190435 | 12 | 13 | 6.4 | 20.9 | 0.00 | 0.00 | 0.00 | 70 | 1011.5 |
| 20260506190403 | 12 | 20 | 6.4 | 20.9 | 0.00 | 0.00 | 0.00 | 70 | 1011.5 |
| 20260506190200 | 12 | 17 | 6.4 | 20.9 | 0.00 | 0.00 | 0.00 | 70 | 1011.4 |
| 20260506190120 | 12 | 30 | 6.4 | 20.9 | 0.00 | 0.00 | 0.00 | 70 | 1011.4 |
| 20260506185704 | 12 | 40 | 6.4 | 19.3 | 0.00 | 0.00 | 0.00 | 70 | 1011.3 |
| 20260506185620 | 12 | 85 | 6.4 | 19.3 | 0.00 | 0.00 | 0.00 | 70 | 1011.3 |
| 20260506184932 | 12 | 355 | 8.0 | 19.3 | 0.00 | 0.00 | 0.00 | 71 | 1011.2 |
| 20260506184904 | 12 | 26 | 8.0 | 19.3 | 0.00 | 0.00 | 0.00 | 71 | 1011.2 |
| 20260506184431 | 12 | 24 | 9.7 | 20.9 | 0.00 | 0.00 | 0.00 | 70 | 1011.2 |
| 20260506184403 | 12 | 45 | 9.7 | 20.9 | 0.00 | 0.00 | 0.00 | 70 | 1011.2 |
| 20260506183930 | 12 | 54 | 9.7 | 20.9 | 0.00 | 0.00 | 0.00 | 71 | 1011.1 |
| 20260506183905 | 12 | 348 | 9.7 | 20.9 | 0.00 | 0.00 | 0.00 | 71 | 1011.1 |
| 20260506183431 | 12 | 34 | 8.0 | 24.1 | 0.00 | 0.00 | 0.00 | 71 | 1011.0 |
| 20260506183405 | 12 | 36 | 8.0 | 24.1 | 0.00 | 0.00 | 0.00 | 71 | 1011.0 |
| 20260506182932 | 12 | 11 | 9.7 | 24.1 | 0.00 | 0.00 | 0.00 | 71 | 1011.0 |
| 20260506182905 | 12 | 355 | 9.7 | 24.1 | 0.00 | 0.00 | 0.00 | 71 | 1011.0 |
| 20260506182431 | 12 | 16 | 9.7 | 22.5 | 0.00 | 0.00 | 0.00 | 71 | 1011.0 |
| 20260506182403 | 12 | 17 | 9.7 | 22.5 | 0.00 | 0.00 | 0.00 | 71 | 1011.0 |
| 20260506181931 | 12 | 38 | 9.7 | 22.5 | 0.00 | 0.00 | 0.00 | 71 | 1011.0 |
| 20260506181905 | 12 | 340 | 9.7 | 22.5 | 0.00 | 0.00 | 0.00 | 71 | 1011.0 |
| 20260506181431 | 12 | 9 | 8.0 | 20.9 | 0.00 | 0.00 | 0.00 | 71 | 1010.8 |
| 20260506181402 | 12 | 16 | 8.0 | 20.9 | 0.00 | 0.00 | 0.00 | 71 | 1010.8 |
| 20260506180933 | 12 | 31 | 9.7 | 20.9 | 0.00 | 0.00 | 0.00 | 71 | 1010.8 |
| 20260506180904 | 12 | 339 | 9.7 | 20.9 | 0.00 | 0.00 | 0.00 | 71 | 1010.8 |
| 20260506180431 | 12 | 336 | 9.7 | 19.3 | 0.00 | 0.00 | 0.00 | 70 | 1010.8 |
| 20260506180406 | 12 | 81 | 9.7 | 19.3 | 0.00 | 0.00 | 0.00 | 70 | 1010.8 |
| 20260506175932 | 12 | 340 | 9.7 | 19.3 | 0.00 | 0.00 | 0.00 | 69 | 1010.7 |
| 20260506175905 | 12 | 345 | 9.7 | 19.3 | 0.00 | 0.00 | 0.00 | 69 | 1010.7 |
| 20260506175432 | 12 | 0 | 6.4 | 22.5 | 0.00 | 0.00 | 0.00 | 68 | 1010.6 |
| 20260506175403 | 13 | 320 | 6.4 | 22.5 | 0.00 | 0.00 | 0.00 | 68 | 1010.6 |
| 20260506174932 | 12 | 28 | 3.2 | 22.5 | 0.00 | 0.00 | 0.00 | 65 | 1010.6 |
| 20260506174905 | 12 | 321 | 3.2 | 22.5 | 0.00 | 0.00 | 0.00 | 65 | 1010.6 |
| 20260506174434 | 12 | 335 | 1.6 | 6.4 | 0.00 | 0.00 | 0.00 | 65 | 1010.5 |
| 20260506174404 | 12 | 355 | 1.6 | 6.4 | 0.00 | 0.00 | 0.00 | 65 | 1010.5 |
| 20260506174200 | 13 | 30 | 3.2 | 9.7 | 0.00 | 0.00 | 0.00 | 64 | 1010.5 |
| 20260506174120 | 13 | 30 | 3.2 | 9.7 | 0.00 | 0.00 | 0.00 | 64 | 1010.5 |
| 20260506173657 | 13 | 40 | 4.8 | 9.7 | 0.00 | 0.00 | 0.00 | 64 | 1010.4 |
| 20260506173619 | 13 | 38 | 4.8 | 9.7 | 0.00 | 0.00 | 0.00 | 64 | 1010.4 |
| 20260506172931 | 13 | 45 | 4.8 | 9.7 | 0.00 | 0.00 | 0.00 | 63 | 1010.4 |
| 20260506172903 | 13 | 29 | 4.8 | 9.7 | 0.00 | 0.00 | 0.00 | 63 | 1010.4 |
| 20260506172431 | 13 | 51 | 4.8 | 12.9 | 0.00 | 0.00 | 0.00 | 63 | 1010.4 |
| 20260506172403 | 13 | 34 | 4.8 | 12.9 | 0.00 | 0.00 | 0.00 | 63 | 1010.4 |
| 20260506171930 | 13 | 17 | 4.8 | 14.5 | 0.00 | 0.00 | 0.00 | 61 | 1010.3 |
| 20260506171905 | 13 | 72 | 4.8 | 14.5 | 0.00 | 0.00 | 0.00 | 61 | 1010.3 |
| 20260506171617 | 13 | 55 | 3.2 | 9.7 | 0.00 | 0.00 | 0.00 | 61 | 1010.2 |
| 20260506171545 | 13 | 98 | 3.2 | 14.5 | 0.00 | 0.00 | 0.00 | 61 | 1010.2 |
| 20260506171534 | 13 | 45 | 3.2 | 14.5 | 0.00 | 0.00 | 0.00 | 61 | 1010.2 |
| 20260506171303 | 13 | 32 | 3.2 | 9.7 | 0.00 | 0.00 | 0.00 | 61 | 1010.3 |
| 20260506171208 | 13 | 32 | 3.2 | 9.7 | 0.00 | 0.00 | 0.00 | 61 | 1010.3 |
| 20260506170622 | 13 | 54 | 3.2 | 9.7 | 0.00 | 0.00 | 0.00 | 61 | 1010.2 |
| 20260506170151 | 13 | 54 | 4.8 | 14.5 | 0.00 | 0.00 | 0.00 | 61 | 1010.2 |
| 20260506170121 | 13 | 55 | 4.8 | 12.9 | 0.00 | 0.00 | 0.00 | 60 | 1010.2 |
| 20260506165427 | 13 | 29 | 4.8 | 14.5 | 0.00 | 0.00 | 0.00 | 60 | 1010.2 |
| 20260506165404 | 13 | 32 | 4.8 | 14.5 | 0.00 | 0.00 | 0.00 | 61 | 1010.2 |
| 20260506164924 | 13 | 57 | 4.8 | 14.5 | 0.00 | 0.00 | 0.00 | 61 | 1010.2 |
| 20260506164906 | 13 | 29 | 4.8 | 14.5 | 0.00 | 0.00 | 0.00 | 61 | 1010.2 |
| 20260506164424 | 13 | 28 | 4.8 | 14.5 | 0.00 | 0.00 | 0.00 | 61 | 1010.2 |
| 20260506164403 | 13 | 29 | 4.8 | 14.5 | 0.00 | 0.00 | 0.00 | 61 | 1010.2 |
| 20260506163917 | 13 | 22 | 6.4 | 16.1 | 0.00 | 0.00 | 0.00 | 62 | 1010.3 |
| 20260506163902 | 13 | 19 | 6.4 | 16.1 | 0.00 | 0.00 | 0.00 | 62 | 1010.3 |
| 20260506163417 | 13 | 41 | 6.4 | 16.1 | 0.00 | 0.00 | 0.00 | 61 | 1010.2 |
| 20260506163403 | 13 | 21 | 6.4 | 16.1 | 0.00 | 0.00 | 0.00 | 61 | 1010.2 |
| 20260506162914 | 13 | 18 | 6.4 | 14.5 | 0.00 | 0.00 | 0.00 | 61 | 1010.2 |
| 20260506162906 | 13 | 17 | 6.4 | 14.5 | 0.00 | 0.00 | 0.00 | 61 | 1010.2 |
| 20260506162413 | 13 | 37 | 6.4 | 16.1 | 0.00 | 0.00 | 0.00 | 61 | 1010.2 |
| 20260506162403 | 13 | 40 | 6.4 | 16.1 | 0.00 | 0.00 | 0.00 | 61 | 1010.2 |
| 20260506161905 | 13 | 41 | 6.4 | 17.7 | 0.00 | 0.00 | 0.00 | 60 | 1010.2 |
| 20260506161407 | 13 | 41 | 6.4 | 20.9 | 0.00 | 0.00 | 0.00 | 60 | 1010.2 |
| 20260506161403 | 13 | 44 | 6.4 | 20.9 | 0.00 | 0.00 | 0.00 | 60 | 1010.2 |
| 20260506161023 | 13 | 351 | 6.4 | 19.3 | 0.00 | 0.00 | 0.00 | 60 | 1010.2 |
| 20260506160959 | 13 | 44 | 8.0 | 20.9 | 0.00 | 0.00 | 0.00 | 60 | 1010.2 |
| 20260506160953 | 13 | 51 | 8.0 | 20.9 | 0.00 | 0.00 | 0.00 | 60 | 1010.2 |
| 20260506160613 | 13 | 333 | 6.4 | 19.3 | 0.00 | 0.00 | 0.00 | 60 | 1010.2 |
| 20260506155906 | 13 | 53 | 6.4 | 19.3 | 0.00 | 0.00 | 0.00 | 59 | 1010.2 |
| 20260506155700 | 13 | 63 | 8.0 | 17.7 | 0.00 | 0.00 | 0.00 | 58 | 1010.1 |
| 20260506155611 | 13 | 59 | 8.0 | 17.7 | 0.00 | 0.00 | 0.00 | 58 | 1010.1 |
| 20260506154903 | 13 | 34 | 8.0 | 19.3 | 0.00 | 0.00 | 0.00 | 57 | 1010.2 |
| 20260506154404 | 13 | 34 | 6.4 | 22.5 | 0.00 | 0.00 | 0.00 | 57 | 1010.1 |
| 20260506153904 | 13 | 19 | 6.4 | 22.5 | 0.00 | 0.00 | 0.00 | 55 | 1010.1 |
| 20260506153713 | 14 | 13 | 6.4 | 16.1 | 0.00 | 0.00 | 0.00 | 56 | 1010.1 |
| 20260506153610 | 14 | 13 | 6.4 | 16.1 | 0.00 | 0.00 | 0.00 | 56 | 1010.1 |
| 20260506152903 | 14 | 0 | 6.4 | 17.7 | 0.00 | 0.00 | 0.00 | 56 | 1010.1 |
| 20260506152404 | 14 | 350 | 8.0 | 24.1 | 0.00 | 0.00 | 0.00 | 55 | 1010.1 |
| 20260506151906 | 14 | 34 | 8.0 | 24.1 | 0.00 | 0.00 | 0.00 | 53 | 1010.0 |
| 20260506151403 | 14 | 38 | 6.4 | 17.7 | 0.00 | 0.00 | 0.00 | 54 | 1010.0 |
| 20260506150906 | 14 | 20 | 4.8 | 16.1 | 0.00 | 0.00 | 0.00 | 53 | 1010.0 |
| 20260506150410 | 14 | 19 | 4.8 | 16.1 | 0.00 | 0.00 | 0.00 | 53 | 1010.0 |
| 20260506145905 | 14 | 76 | 8.0 | 19.3 | 0.00 | 0.00 | 0.00 | 54 | 1010.0 |
| 20260506145402 | 13 | 346 | 8.0 | 22.5 | 0.00 | 0.00 | 0.00 | 53 | 1009.9 |
| 20260506144909 | 14 | 55 | 6.4 | 22.5 | 0.00 | 0.00 | 0.00 | 55 | 1010.0 |
| 20260506144404 | 14 | 42 | 4.8 | 14.5 | 0.00 | 0.00 | 0.00 | 54 | 1010.0 |
| 20260506143906 | 14 | 28 | 4.8 | 14.5 | 0.00 | 0.00 | 0.00 | 55 | 1010.0 |
| 20260506143405 | 14 | 42 | 3.2 | 14.5 | 0.00 | 0.00 | 0.00 | 55 | 1010.0 |
| 20260506142908 | 14 | 44 | 3.2 | 12.9 | 0.00 | 0.00 | 0.00 | 56 | 1010.0 |
| 20260506142403 | 14 | 76 | 6.4 | 16.1 | 0.00 | 0.00 | 0.00 | 55 | 1009.9 |
| 20260506141905 | 14 | 32 | 8.0 | 17.7 | 0.00 | 0.00 | 0.00 | 54 | 1010.0 |
| 20260506141404 | 14 | 46 | 8.0 | 17.7 | 0.00 | 0.00 | 0.00 | 53 | 1010.0 |
| 20260506141204 | 14 | 14 | 6.4 | 17.7 | 0.00 | 0.00 | 0.00 | 52 | 1009.9 |
| 20260506141116 | 14 | 14 | 6.4 | 17.7 | 0.00 | 0.00 | 0.00 | 52 | 1009.9 |
| 20260506140405 | 14 | 76 | 6.4 | 20.9 | 0.00 | 0.00 | 0.00 | 52 | 1009.9 |
| 20260506135905 | 14 | 38 | 8.0 | 20.9 | 0.00 | 0.00 | 0.00 | 51 | 1009.9 |
| 20260506135403 | 14 | 36 | 8.0 | 19.3 | 0.00 | 0.00 | 0.00 | 52 | 1009.9 |
| 20260506134904 | 14 | 51 | 8.0 | 22.5 | 0.00 | 0.00 | 0.00 | 52 | 1009.9 |
| 20260506134404 | 14 | 56 | 9.7 | 22.5 | 0.00 | 0.00 | 0.00 | 52 | 1009.9 |
| 20260506133906 | 14 | 38 | 9.7 | 22.5 | 0.00 | 0.00 | 0.00 | 53 | 1009.9 |
| 20260506133403 | 14 | 44 | 9.7 | 24.1 | 0.00 | 0.00 | 0.00 | 51 | 1009.8 |
| 20260506132905 | 14 | 51 | 11.3 | 27.4 | 0.00 | 0.00 | 0.00 | 51 | 1009.8 |
| 20260506132404 | 14 | 42 | 9.7 | 27.4 | 0.00 | 0.00 | 0.00 | 49 | 1009.8 |
| 20260506132009 | 14 | 78 | 9.7 | 20.9 | 0.00 | 0.00 | 0.00 | 50 | 1009.8 |
| 20260506131943 | 14 | 57 | 8.0 | 20.9 | 0.00 | 0.00 | 0.00 | 50 | 1009.8 |
| 20260506131613 | 14 | 78 | 9.7 | 20.9 | 0.00 | 0.00 | 0.00 | 50 | 1009.8 |
| 20260506130904 | 14 | 42 | 9.7 | 25.7 | 0.00 | 0.00 | 0.00 | 51 | 1009.8 |
| 20260506130401 | 14 | 34 | 9.7 | 25.7 | 0.00 | 0.00 | 0.00 | 52 | 1009.7 |
| 20260506125905 | 14 | 71 | 9.7 | 22.5 | 0.00 | 0.00 | 0.00 | 53 | 1009.7 |
| 20260506125402 | 14 | 26 | 11.3 | 22.5 | 0.00 | 0.00 | 0.00 | 52 | 1009.7 |
| 20260506124904 | 14 | 69 | 8.0 | 22.5 | 0.00 | 0.00 | 0.00 | 52 | 1009.7 |
| 20260506124706 | 14 | 40 | 6.4 | 19.3 | 0.00 | 0.00 | 0.00 | 52 | 1009.8 |
| 20260506124612 | 14 | 40 | 6.4 | 19.3 | 0.00 | 0.00 | 0.00 | 52 | 1009.8 |
| 20260506123902 | 14 | 44 | 9.7 | 22.5 | 0.00 | 0.00 | 0.00 | 52 | 1009.7 |
| 20260506123403 | 14 | 53 | 11.3 | 27.4 | 0.00 | 0.00 | 0.00 | 52 | 1009.7 |
| 20260506123202 | 14 | 18 | 11.3 | 27.4 | 0.00 | 0.00 | 0.00 | 51 | 1009.7 |
| 20260506123113 | 14 | 18 | 11.3 | 27.4 | 0.00 | 0.00 | 0.00 | 51 | 1009.7 |
| 20260506122403 | 14 | 65 | 9.7 | 22.5 | 0.00 | 0.00 | 0.00 | 52 | 1009.7 |
| 20260506121906 | 14 | 68 | 8.0 | 22.5 | 0.00 | 0.00 | 0.00 | 52 | 1009.7 |
| 20260506121403 | 14 | 12 | 4.8 | 17.7 | 0.00 | 0.00 | 0.00 | 54 | 1009.6 |
| 20260506120904 | 14 | 38 | 6.4 | 19.3 | 0.00 | 0.00 | 0.00 | 54 | 1009.6 |
| 20260506120406 | 14 | 23 | 6.4 | 19.3 | 0.00 | 0.00 | 0.00 | 54 | 1009.6 |
| 20260506115906 | 14 | 46 | 6.4 | 19.3 | 0.00 | 0.00 | 0.00 | 54 | 1009.6 |
| 20260506115402 | 14 | 31 | 6.4 | 19.3 | 0.00 | 0.00 | 0.00 | 54 | 1009.6 |
| 20260506115206 | 14 | 38 | 6.4 | 19.3 | 0.00 | 0.00 | 0.00 | 54 | 1009.6 |
| 20260506115114 | 14 | 38 | 6.4 | 19.3 | 0.00 | 0.00 | 0.00 | 54 | 1009.6 |
| 20260506114402 | 14 | 71 | 8.0 | 24.1 | 0.00 | 0.00 | 0.00 | 55 | 1009.6 |
| 20260506113903 | 14 | 51 | 9.7 | 24.1 | 0.00 | 0.00 | 0.00 | 53 | 1009.7 |
| 20260506113405 | 14 | 50 | 9.7 | 19.3 | 0.00 | 0.00 | 0.00 | 53 | 1009.6 |
| 20260506112906 | 14 | 47 | 8.0 | 27.4 | 0.00 | 0.00 | 0.00 | 54 | 1009.6 |
| 20260506112405 | 14 | 27 | 9.7 | 27.4 | 0.00 | 0.00 | 0.00 | 55 | 1009.5 |
| 20260506111906 | 14 | 48 | 8.0 | 22.5 | 0.00 | 0.00 | 0.00 | 54 | 1009.6 |
| 20260506111404 | 14 | 12 | 6.4 | 17.7 | 0.00 | 0.00 | 0.00 | 53 | 1009.5 |
| 20260506110902 | 15 | 44 | 4.8 | 16.1 | 0.00 | 0.00 | 0.00 | 56 | 1009.5 |
| 20260506110402 | 14 | 28 | 4.8 | 20.9 | 0.00 | 0.00 | 0.00 | 57 | 1009.4 |
| 20260506105906 | 14 | 61 | 6.4 | 20.9 | 0.00 | 0.00 | 0.00 | 57 | 1009.4 |
| 20260506105404 | 13 | 355 | 6.4 | 20.9 | 0.00 | 0.00 | 0.00 | 59 | 1009.4 |
| 20260506104905 | 13 | 30 | 6.4 | 17.7 | 0.00 | 0.00 | 0.00 | 60 | 1009.4 |
| 20260506104405 | 13 | 24 | 8.0 | 17.7 | 0.00 | 0.00 | 0.00 | 63 | 1009.4 |
| 20260506104203 | 13 | 32 | 8.0 | 17.7 | 0.00 | 0.00 | 0.00 | 64 | 1009.4 |
| 20260506104113 | 13 | 32 | 8.0 | 17.7 | 0.00 | 0.00 | 0.00 | 64 | 1009.4 |
| 20260506103401 | 13 | 30 | 8.0 | 19.3 | 0.00 | 0.00 | 0.00 | 64 | 1009.4 |
| 20260506103006 | 13 | 44 | 8.0 | 17.7 | 0.00 | 0.00 | 0.00 | 62 | 1009.3 |
| 20260506102938 | 13 | 53 | 8.0 | 19.3 | 0.00 | 0.00 | 0.00 | 64 | 1009.4 |
| 20260506102612 | 13 | 44 | 8.0 | 17.7 | 0.00 | 0.00 | 0.00 | 62 | 1009.3 |
| 20260506101903 | 13 | 68 | 8.0 | 20.9 | 0.00 | 0.00 | 0.00 | 61 | 1009.4 |
| 20260506101402 | 13 | 57 | 8.0 | 20.9 | 0.00 | 0.00 | 0.00 | 61 | 1009.3 |
| 20260506100904 | 13 | 38 | 6.4 | 19.3 | 0.00 | 0.00 | 0.00 | 63 | 1009.3 |
| 20260506100657 | 13 | 46 | 6.4 | 19.3 | 0.00 | 0.00 | 0.00 | 63 | 1009.2 |
| 20260506100610 | 13 | 46 | 6.4 | 19.3 | 0.00 | 0.00 | 0.00 | 63 | 1009.2 |
| 20260506095906 | 13 | 42 | 6.4 | 19.3 | 0.00 | 0.00 | 0.00 | 65 | 1009.2 |
| 20260506095405 | 13 | 55 | 6.4 | 19.3 | 0.00 | 0.00 | 0.00 | 66 | 1009.1 |
| 20260506095207 | 13 | 28 | 8.0 | 20.9 | 0.00 | 0.00 | 0.00 | 71 | 1009.2 |
| 20260506095115 | 13 | 28 | 8.0 | 20.9 | 0.00 | 0.00 | 0.00 | 71 | 1009.2 |
| 20260506094401 | 13 | 40 | 9.7 | 24.1 | 0.00 | 0.00 | 0.00 | 72 | 1009.1 |
| 20260506093904 | 12 | 23 | 9.7 | 24.1 | 0.00 | 0.00 | 0.00 | 73 | 1009.1 |
| 20260506093403 | 12 | 13 | 9.7 | 22.5 | 0.00 | 0.00 | 0.00 | 75 | 1009.1 |
| 20260506093220 | 12 | 330 | 9.7 | 22.5 | 0.00 | 0.00 | 0.00 | 76 | 1009.1 |
| 20260506093113 | 12 | 330 | 9.7 | 22.5 | 0.00 | 0.00 | 0.00 | 76 | 1009.1 |
| 20260506092402 | 12 | 36 | 9.7 | 19.3 | 0.00 | 0.00 | 0.00 | 76 | 1009.1 |
| 20260506091905 | 12 | 23 | 8.0 | 22.5 | 0.00 | 0.00 | 0.00 | 77 | 1009.1 |
| 20260506091405 | 12 | 26 | 9.7 | 22.5 | 0.00 | 0.00 | 0.00 | 77 | 1009.0 |
| 20260506091004 | 12 | 346 | 9.7 | 20.9 | 0.00 | 0.00 | 0.00 | 78 | 1009.0 |
| 20260506090938 | 12 | 49 | 9.7 | 22.5 | 0.00 | 0.00 | 0.00 | 77 | 1009.0 |
| 20260506090613 | 12 | 346 | 9.7 | 20.9 | 0.00 | 0.00 | 0.00 | 78 | 1009.0 |
| 20260506085906 | 12 | 331 | 9.7 | 20.9 | 0.00 | 0.00 | 0.00 | 78 | 1009.0 |
| 20260506085402 | 12 | 90 | 9.7 | 19.3 | 0.00 | 0.00 | 0.00 | 77 | 1009.0 |
| 20260506084909 | 12 | 346 | 8.0 | 19.3 | 0.00 | 0.00 | 0.00 | 76 | 1009.0 |
| 20260506084402 | 12 | 5 | 8.0 | 19.3 | 0.00 | 0.00 | 0.00 | 75 | 1009.0 |
| 20260506083903 | 12 | 13 | 8.0 | 17.7 | 0.00 | 0.00 | 0.00 | 75 | 1009.0 |
| 20260506083403 | 12 | 38 | 8.0 | 19.3 | 0.00 | 0.00 | 0.00 | 75 | 1008.9 |
| 20260506083023 | 12 | 33 | 9.7 | 24.1 | 0.00 | 0.00 | 0.00 | 74 | 1008.9 |
| 20260506082952 | 12 | 38 | 9.7 | 20.9 | 0.00 | 0.00 | 0.00 | 74 | 1008.9 |
| 20260506082613 | 12 | 33 | 9.7 | 24.1 | 0.00 | 0.00 | 0.00 | 74 | 1008.9 |
| 20260506081903 | 12 | 340 | 9.7 | 24.1 | 0.00 | 0.00 | 0.00 | 73 | 1008.9 |
| 20260506081657 | 12 | 0 | 9.7 | 22.5 | 0.00 | 0.00 | 0.00 | 73 | 1008.9 |
| 20260506081610 | 12 | 0 | 9.7 | 22.5 | 0.00 | 0.00 | 0.00 | 73 | 1008.9 |
| 20260506081200 | 12 | 5 | 9.7 | 22.5 | 0.00 | 0.00 | 0.00 | 74 | 1008.9 |
| 20260506081112 | 12 | 5 | 9.7 | 22.5 | 0.00 | 0.00 | 0.00 | 74 | 1008.9 |
| 20260506080408 | 12 | 355 | 9.7 | 19.3 | 0.00 | 0.00 | 0.00 | 74 | 1008.9 |
| 20260506080401 | 12 | 26 | 9.7 | 19.3 | 0.00 | 0.00 | 0.00 | 74 | 1008.9 |
| 20260506073404 | 12 | 61 | 9.7 | 27.4 | 0.00 | 0.00 | 0.00 | 71 | 1008.8 |
| 20260506073355 | 12 | 63 | 9.7 | 27.4 | 0.00 | 0.00 | 0.00 | 71 | 1008.8 |
| 20260506072904 | 12 | 58 | 9.7 | 27.4 | 0.00 | 0.00 | 0.00 | 71 | 1008.8 |
| 20260506072854 | 12 | 48 | 9.7 | 27.4 | 0.00 | 0.00 | 0.00 | 71 | 1008.8 |
| 20260506072650 | 12 | 39 | 9.7 | 25.7 | 0.00 | 0.00 | 0.00 | 71 | 1008.7 |
| 20260506072605 | 12 | 69 | 9.7 | 25.7 | 0.00 | 0.00 | 0.00 | 71 | 1008.7 |
| 20260506072149 | 12 | 51 | 6.4 | 19.3 | 0.00 | 0.00 | 0.00 | 72 | 1008.7 |
| 20260506072104 | 12 | 51 | 6.4 | 19.3 | 0.00 | 0.00 | 0.00 | 72 | 1008.7 |
| 20260506071403 | 12 | 21 | 3.2 | 12.9 | 0.00 | 0.00 | 0.00 | 74 | 1008.7 |
| 20260506071351 | 12 | 42 | 3.2 | 12.9 | 0.00 | 0.00 | 0.00 | 74 | 1008.7 |
| 20260506070904 | 12 | 46 | 4.8 | 16.1 | 0.00 | 0.00 | 0.00 | 74 | 1008.7 |
| 20260506070846 | 12 | 44 | 4.8 | 16.1 | 0.00 | 0.00 | 0.00 | 75 | 1008.7 |
| 20260506070640 | 11 | 51 | 6.4 | 16.1 | 0.00 | 0.00 | 0.00 | 75 | 1008.6 |
| 20260506070557 | 11 | 51 | 4.8 | 16.1 | 0.00 | 0.00 | 0.00 | 75 | 1008.6 |
| 20260506062403 | 11 | 29 | 6.4 | 20.9 | 0.00 | 0.00 | 0.00 | 84 | 1008.5 |
| 20260506062332 | 11 | 34 | 6.4 | 20.9 | 0.00 | 0.00 | 0.00 | 84 | 1008.5 |
| 20260506061904 | 11 | 10 | 6.4 | 19.3 | 0.00 | 0.00 | 0.00 | 85 | 1008.5 |
| 20260506061834 | 11 | 355 | 6.4 | 19.3 | 0.00 | 0.00 | 0.00 | 85 | 1008.4 |
| 20260506061405 | 11 | 20 | 6.4 | 19.3 | 0.00 | 0.00 | 0.00 | 84 | 1008.4 |
| 20260506061332 | 11 | 350 | 6.4 | 19.3 | 0.00 | 0.00 | 0.00 | 84 | 1008.4 |
| 20260506060904 | 11 | 13 | 6.4 | 17.7 | 0.00 | 0.00 | 0.00 | 84 | 1008.3 |
| 20260506060831 | 11 | 28 | 6.4 | 17.7 | 0.00 | 0.00 | 0.00 | 84 | 1008.4 |
| 20260506060632 | 11 | 10 | 6.4 | 17.7 | 0.00 | 0.00 | 0.00 | 84 | 1008.3 |
| 20260506060551 | 11 | 17 | 6.4 | 17.7 | 0.00 | 0.00 | 0.00 | 84 | 1008.3 |
| 20260506051403 | 10 | 24 | 6.4 | 17.7 | 0.00 | 0.00 | 0.00 | 86 | 1008.3 |
| 20260506051331 | 10 | 17 | 6.4 | 17.7 | 0.00 | 0.00 | 0.00 | 86 | 1008.3 |
| 20260506050903 | 10 | 48 | 6.4 | 17.7 | 0.00 | 0.00 | 0.00 | 86 | 1008.3 |
| 20260506050829 | 10 | 341 | 6.4 | 17.7 | 0.00 | 0.00 | 0.00 | 86 | 1008.3 |
| 20260506050402 | 10 | 349 | 4.8 | 12.9 | 0.00 | 0.00 | 0.00 | 86 | 1008.3 |
| 20260506050332 | 10 | 15 | 4.8 | 12.9 | 0.00 | 0.00 | 0.00 | 86 | 1008.3 |
| 20260506044902 | 10 | 338 | 6.4 | 16.1 | 0.00 | 0.00 | 0.00 | 86 | 1008.4 |
| 20260506044826 | 10 | 349 | 6.4 | 16.1 | 0.00 | 0.00 | 0.00 | 86 | 1008.4 |
| 20260506044402 | 10 | 0 | 6.4 | 16.1 | 0.00 | 0.00 | 0.00 | 86 | 1008.3 |
| 20260506044322 | 10 | 355 | 6.4 | 16.1 | 0.00 | 0.00 | 0.00 | 86 | 1008.3 |
| 20260506043855 | 10 | 26 | 4.8 | 14.5 | 0.00 | 0.00 | 0.00 | 86 | 1008.4 |
| 20260506043823 | 10 | 347 | 4.8 | 14.5 | 0.00 | 0.00 | 0.00 | 86 | 1008.4 |
| 20260506043605 | 10 | 355 | 4.8 | 17.7 | 0.00 | 0.00 | 0.00 | 86 | 1008.4 |
| 20260506043527 | 10 | 23 | 4.8 | 17.7 | 0.00 | 0.00 | 0.00 | 86 | 1008.4 |
| 20260506043107 | 10 | 355 | 6.4 | 20.9 | 0.00 | 0.00 | 0.00 | 86 | 1008.4 |
| 20260506043028 | 10 | 355 | 6.4 | 20.9 | 0.00 | 0.00 | 0.00 | 86 | 1008.5 |
| 20260506042348 | 10 | 355 | 6.4 | 20.9 | 0.00 | 0.00 | 0.00 | 86 | 1008.5 |
| 20260506042306 | 10 | 10 | 6.4 | 20.9 | 0.00 | 0.00 | 0.00 | 86 | 1008.5 |
| 20260506041846 | 10 | 11 | 4.8 | 14.5 | 0.00 | 0.00 | 0.00 | 86 | 1008.4 |
| 20260506041806 | 10 | 32 | 4.8 | 14.5 | 0.00 | 0.00 | 0.00 | 86 | 1008.4 |
| 20260506041604 | 10 | 5 | 3.2 | 14.5 | 0.00 | 0.00 | 0.00 | 85 | 1008.5 |
| 20260506041524 | 10 | 355 | 3.2 | 14.5 | 0.00 | 0.00 | 0.00 | 85 | 1008.5 |
| 20260506040847 | 10 | 5 | 4.8 | 14.5 | 0.00 | 0.00 | 0.00 | 85 | 1008.4 |
| 20260506040805 | 10 | 348 | 4.8 | 14.5 | 0.00 | 0.00 | 0.00 | 85 | 1008.4 |
| 20260506040348 | 10 | 5 | 4.8 | 14.5 | 0.00 | 0.00 | 0.00 | 85 | 1008.5 |
| 20260506040307 | 10 | 24 | 4.8 | 14.5 | 0.00 | 0.00 | 0.00 | 85 | 1008.5 |
| 20260506035847 | 10 | 39 | 4.8 | 14.5 | 0.00 | 0.00 | 0.00 | 85 | 1008.5 |
| 20260506035804 | 10 | 19 | 4.8 | 16.1 | 0.00 | 0.00 | 0.00 | 85 | 1008.5 |
| 20260506035615 | 10 | 19 | 6.4 | 16.1 | 0.00 | 0.00 | 0.00 | 85 | 1008.5 |
| 20260506035522 | 10 | 38 | 6.4 | 16.1 | 0.00 | 0.00 | 0.00 | 85 | 1008.5 |
| 20260506034844 | 10 | 350 | 4.8 | 16.1 | 0.00 | 0.00 | 0.00 | 85 | 1008.5 |
| 20260506034804 | 10 | 34 | 4.8 | 16.1 | 0.00 | 0.00 | 0.00 | 85 | 1008.5 |
| 20260506034342 | 10 | 23 | 4.8 | 16.1 | 0.00 | 0.00 | 0.00 | 85 | 1008.5 |
| 20260506034303 | 10 | 355 | 4.8 | 16.1 | 0.00 | 0.00 | 0.00 | 85 | 1008.5 |
| 20260506033840 | 10 | 42 | 6.4 | 16.1 | 0.00 | 0.00 | 0.00 | 85 | 1008.6 |
| 20260506033802 | 10 | 48 | 6.4 | 16.1 | 0.00 | 0.00 | 0.00 | 85 | 1008.6 |
| 20260506033340 | 10 | 28 | 6.4 | 16.1 | 0.00 | 0.00 | 0.00 | 85 | 1008.6 |
| 20260506033305 | 10 | 19 | 6.4 | 16.1 | 0.00 | 0.00 | 0.00 | 85 | 1008.6 |
| 20260506032838 | 10 | 44 | 6.4 | 16.1 | 0.00 | 0.00 | 0.00 | 85 | 1008.6 |
| 20260506032801 | 10 | 5 | 6.4 | 16.1 | 0.00 | 0.00 | 0.00 | 85 | 1008.6 |
| 20260506032336 | 10 | 13 | 6.4 | 14.5 | 0.00 | 0.00 | 0.00 | 85 | 1008.7 |
| 20260506032306 | 10 | 18 | 6.4 | 14.5 | 0.00 | 0.00 | 0.00 | 85 | 1008.7 |
| 20260506031832 | 10 | 40 | 6.4 | 14.5 | 0.00 | 0.00 | 0.00 | 85 | 1008.6 |
| 20260506031805 | 10 | 336 | 6.4 | 14.5 | 0.00 | 0.00 | 0.00 | 85 | 1008.6 |
| 20260506031603 | 10 | 24 | 4.8 | 14.5 | 0.00 | 0.00 | 0.00 | 85 | 1008.7 |
| 20260506031523 | 10 | 14 | 4.8 | 14.5 | 0.00 | 0.00 | 0.00 | 85 | 1008.7 |
| 20260506030832 | 10 | 26 | 4.8 | 14.5 | 0.00 | 0.00 | 0.00 | 84 | 1008.7 |
| 20260506030805 | 10 | 32 | 4.8 | 14.5 | 0.00 | 0.00 | 0.00 | 84 | 1008.7 |
| 20260506030331 | 10 | 16 | 6.4 | 19.3 | 0.00 | 0.00 | 0.00 | 84 | 1008.8 |
| 20260506030303 | 10 | 22 | 6.4 | 19.3 | 0.00 | 0.00 | 0.00 | 84 | 1008.8 |
| 20260506025830 | 10 | 5 | 6.4 | 19.3 | 0.00 | 0.00 | 0.00 | 84 | 1008.9 |
| 20260506025803 | 10 | 336 | 6.4 | 19.3 | 0.00 | 0.00 | 0.00 | 84 | 1008.9 |
| 20260506025328 | 10 | 25 | 6.4 | 14.5 | 0.00 | 0.00 | 0.00 | 84 | 1008.9 |
| 20260506025305 | 10 | 16 | 6.4 | 14.5 | 0.00 | 0.00 | 0.00 | 84 | 1008.9 |
| 20260506024829 | 10 | 23 | 6.4 | 14.5 | 0.00 | 0.00 | 0.00 | 84 | 1008.9 |
| 20260506024803 | 10 | 31 | 6.4 | 14.5 | 0.00 | 0.00 | 0.00 | 84 | 1008.9 |
| 20260506024320 | 10 | 17 | 6.4 | 19.3 | 0.00 | 0.00 | 0.00 | 83 | 1009.0 |
| 20260506024304 | 10 | 0 | 6.4 | 19.3 | 0.00 | 0.00 | 0.00 | 83 | 1009.0 |
| 20260506023819 | 10 | 27 | 6.4 | 19.3 | 0.00 | 0.00 | 0.00 | 83 | 1009.0 |
| 20260506023804 | 10 | 18 | 6.4 | 19.3 | 0.00 | 0.00 | 0.00 | 83 | 1009.0 |
| 20260506023318 | 10 | 13 | 4.8 | 14.5 | 0.00 | 0.00 | 0.00 | 82 | 1009.0 |
| 20260506023303 | 10 | 11 | 4.8 | 14.5 | 0.00 | 0.00 | 0.00 | 82 | 1009.0 |
| 20260506022817 | 10 | 19 | 4.8 | 16.1 | 0.00 | 0.00 | 0.00 | 82 | 1009.0 |
| 20260506022802 | 10 | 17 | 4.8 | 16.1 | 0.00 | 0.00 | 0.00 | 82 | 1009.0 |
| 20260506022318 | 10 | 5 | 6.4 | 17.7 | 0.00 | 0.00 | 0.00 | 82 | 1009.0 |
| 20260506022305 | 10 | 34 | 6.4 | 17.7 | 0.00 | 0.00 | 0.00 | 82 | 1009.0 |
| 20260506022103 | 10 | 5 | 4.8 | 17.7 | 0.00 | 0.00 | 0.00 | 82 | 1009.0 |
| 20260506022014 | 10 | 10 | 4.8 | 17.7 | 0.00 | 0.00 | 0.00 | 82 | 1009.0 |
| 20260506021301 | 10 | 19 | 6.4 | 14.5 | 0.00 | 0.00 | 0.00 | 82 | 1009.0 |
| 20260506020810 | 10 | 27 | 6.4 | 17.7 | 0.00 | 0.00 | 0.00 | 82 | 1009.0 |
| 20260506020804 | 10 | 23 | 6.4 | 17.7 | 0.00 | 0.00 | 0.00 | 82 | 1009.0 |
| 20260506020308 | 10 | 39 | 4.8 | 17.7 | 0.00 | 0.00 | 0.00 | 82 | 1009.0 |
| 20260506020303 | 10 | 22 | 4.8 | 17.7 | 0.00 | 0.00 | 0.00 | 82 | 1009.0 |
| 20260506015807 | 10 | 39 | 4.8 | 16.1 | 0.00 | 0.00 | 0.00 | 82 | 1009.0 |
| 20260506015803 | 10 | 37 | 4.8 | 16.1 | 0.00 | 0.00 | 0.00 | 82 | 1009.0 |
| 20260506015305 | 10 | 49 | 6.4 | 14.5 | 0.00 | 0.00 | 0.00 | 82 | 1009.1 |
| 20260506014809 | 10 | 52 | 6.4 | 14.5 | 0.00 | 0.00 | 0.00 | 82 | 1009.1 |
| 20260506014803 | 10 | 41 | 6.4 | 14.5 | 0.00 | 0.00 | 0.00 | 82 | 1009.1 |
| 20260506014307 | 10 | 59 | 6.4 | 14.5 | 0.00 | 0.00 | 0.00 | 82 | 1009.1 |
| 20260506014303 | 10 | 63 | 6.4 | 14.5 | 0.00 | 0.00 | 0.00 | 82 | 1009.1 |